Regional Weather Roundup
Issued by NWS

Home | Current Version | Previous Version | Graphics & Text | Print | Product List | Glossary On
Versions: 1 2 3 4 5 6 7 8 9 10 11 12 13 14 15 16 17 18 19 20 21 22 23 24 25 26 27 28 29 30 31 32 33 34 35 36 37 38 39 40 41 42 43 44 45 46 47 48 49 50
000
ASUS43 KMKX 220321
RWRWI

WISCONSIN REGIONAL WEATHER ROUNDUP
NATIONAL WEATHER SERVICE MILWAUKEE/SULLIVAN WI
1000 PM CDT THU SEP 21 2017

NOTE: "FAIR" INDICATES FEW OR NO CLOUDS BELOW 12,000 FEET WITH NO
SIGNIFICANT WEATHER AND/OR OBSTRUCTIONS TO VISIBILITY.

WIZ001-002-006>008-014>016-023>028-220400-
NORTHWEST WISCONSIN

CITY           SKY/WX    TMP DP  RH WIND       PRES   REMARKS
SUPERIOR ARPT  CLOUDY    60  56  88 NE9G16    29.91S
ASHLAND        PTCLDY    57  55  93 CALM      29.92F
HAYWARD        CLEAR     71  65  81 SE3       29.91S
SIREN          PTCLDY    72  66  83 SE7       29.86F
CUMBERLAND     CLOUDY    70  64  83 SE7       29.89S
RICE LAKE      MOCLDY    73  66  79 SE8       29.91R
CHETEK         MOCLDY    72  67  84 SE5       29.90R
LADYSMITH      CLEAR     71  67  88 E7        29.94S
EAU CLAIRE     CLEAR     73  65  75 SE3       29.89R
MENOMONIE      MOCLDY    72  66  81 SE8       29.88R
NEW RICHMOND   CLEAR     73  64  73 SE8       29.85S
OSCEOLA        CLEAR     74  65  71 SE13      29.86S
$$

WIZ003>005-009-010-017-018-220400-
NORTH CENTRAL WISCONSIN

CITY           SKY/WX    TMP DP  RH WIND       PRES   REMARKS
MANITOWISH WTR CLEAR     68  68 100 SE5       29.99S
ARBOR VITAE    CLEAR     69  67  93 SE6       29.99F
WOODRUFF       CLEAR     69  67  93 SE6       29.99F
RHINELANDER    CLEAR     67  67 100 SE6       30.01S
EAGLE RIVER    CLEAR     67  66  99 SE3       30.01S
LAND O LAKES   CLEAR     68  66  92 S6        30.02S
PHILLIPS       CLEAR     68  67  96 SE7       29.96S
TOMAHAWK       CLEAR     66  64  94 SE3       30.00S
MEDFORD        CLEAR     69  64  85 SE7       29.97S
MERRILL        CLEAR     68  68 100 E7        30.00S
$$

WIZ029-030-035-036-043>047-220400-
CENTRAL WISCONSIN

CITY           SKY/WX    TMP DP  RH WIND       PRES   REMARKS
WAUSAU         CLEAR     68  66  93 E6        29.97S
MOSINEE        CLEAR     70  66  88 E6        30.00S
MARSHFIELD     CLEAR     70  63  78 SE7       29.96S
STEVENS POINT  CLEAR     69  65  89 SE5       29.99S
WAUPACA        CLEAR     72  67  86 CALM      29.99S
WAUTOMA        CLEAR     73  68  84 CALM      29.98S
WISC RAPIDS    CLEAR     72  66  81 SE7       29.98S
CAMP DOUGLAS   CLEAR     67  66  97 SE6       29.95R
$$

WIZ011>013-019>022-031-037>040-048>050-220400-
NORTHEAST WISCONSIN

CITY           SKY/WX    TMP DP  RH WIND       PRES   REMARKS
ANTIGO         MOCLDY    67  67 100 SE8       30.03S FOG
SHAWANO        CLEAR     69  67  93 CALM      29.99F FOG
OCONTO         PTCLDY    64  64  97 CALM      30.00F
STURGEON BAY   CLOUDY    65  65 100 SE6       30.02F FOG
GREEN BAY      CLEAR     68  68 100 SE3       30.00S
MANITOWOC      FOG       64  64 100 CALM      30.02S VSB 1/4
APPLETON       MOCLDY    72  64  78 VRB6      29.99S
CLINTONVILLE   CLEAR     70  66  88 E3        29.99F
OSHKOSH        CLEAR     70  67  90 S3        29.99S
$$

WIZ032>034-041-042-053>061-220400-
SOUTHWEST WISCONSIN

CITY           SKY/WX    TMP DP  RH WIND       PRES   REMARKS
LA CROSSE      NOT AVBL
SPARTA         PTCLDY    74  64  69 SE3       29.95R
VIROQUA        CLEAR     73  66  79 CALM      29.96R
BOSCOBEL       CLEAR     79  66  64 VRB3      29.94R HX  81
PRAIRIE DU CHI CLEAR     76  64  67 CALM      29.93R
PLATTEVILLE    MOCLDY    74  68  82 SE6       29.97S
$$

WIZ056-057-062-063-064-067-068-220400-
SOUTH CENTRAL WISCONSIN

CITY           SKY/WX    TMP DP  RH WIND       PRES   REMARKS
REEDSBURG      CLEAR     74  65  74 CALM      29.96S
BARABOO/DELLS  CLEAR     74  64  70 S5        29.97S
LONE ROCK      PTCLDY    74  66  76 E7        29.95S
MINERAL POINT  CLEAR     73  68  83 SE8       29.98R
MADISON        PTCLDY    77  65  66 S8        29.98R
MIDDLETON      CLEAR     73  66  78 SE5       29.99S
WATERTOWN      CLOUDY    73  70  92 SE7       29.99F
MONROE         CLEAR     73  64  73 SE8       29.99S
JANESVILLE     CLOUDY    73  64  73 SE3       29.98F
$$

WIZ051-052-058>065-066-070>072-220400-
SOUTHEAST WISCONSIN

CITY           SKY/WX    TMP DP  RH WIND       PRES   REMARKS
MILWAUKEE      PTCLDY    73  69  87 CALM      30.01S
WAUKESHA       NOT AVBL
MILWAUKEE/TIMM CLEAR     72  64  78 CALM      30.03S
RACINE         CLEAR     73  70  90 SE5       30.03S
BURLINGTON     PTCLDY    70  68  93 CALM      30.01S
KENOSHA        CLEAR     73  68  84 SE6       30.02S
FOND DU LAC    CLEAR     73  66  78 SE8       30.00S
SHEBOYGAN      CLOUDY    65  65 100 CALM      30.02S FOG
WEST BEND        N/A     66  66 100 CALM      30.02S FOG
JUNEAU         CLOUDY    71  67  89 SE7       30.01F
$$

LSZ147-162-220400-
LAKE SUPERIOR

STATION/POSITION TIME  TEMP    WIND        PRES    WAVE
                       AIR SEA DIR/SP/G            HT/PER
                 (UTC) (F)     (DEG/KT/KT) (MB)    (FT/S)
W MID LAKE BUOY  0250   59 55  110/ 12/ 14 1013.5S   2/ 4
DEVILS ISLAND    0300   62      90/  3/  5 1013.1F
SAXON HARBOR     0230   62      CALM  /  2 1012.5R
$$

LMZ867-665-643>646-220400-
LAKE MICHIGAN

STATION/POSITION TIME  TEMP    WIND        PRES    WAVE
                       AIR SEA DIR/SP/G            HT/PER
                 (UTC) (F)     (DEG/KT/KT) (MB)    (FT/S)
S GREEN BAY BUOY 0300   67 67  150/  8/ 10 1015.7
N MID LAKE BUOY  0250   67 66  150/  4/  6 1017.0S   1
NORTHPORT PIER   0240   67     180/  5/  9 1016.3S
KEWAUNEE LAKESHO 0254   64        CALM     1015.6F
SHEBOYGAN LAKESH 0300   70     220/  2/  2 1015.9F
PORT WASHINGTON  0230   71      CALM  /  2 1016.9F
ATWATER BUOY     0209   69 67  160/  2/  4 1016.6R
MILWAUKEE LAKESH 0300   71     170/  1/  2   N/A
S MID LAKE BUOY  0250   73 70  100/ 10/ 10 1016.3R   0
KENOSHA   LAKESH 0300   72      CALM  /  3 1015.9
$$

TC  - TEMPERATURE IN CELSIUS
VSB - VISIBILITY IN STATUTE MILES
WCI - WIND CHILL INDEX
HX  - HEAT INDEX





USA.gov is the U.S. government's official web portal to all federal, state and local government web resources and services.